| time (UTC) | temp F | wind direction | speed knots | gust knots | rain 1hr in | rain 24hr in | rain mn in | humidity % | barometer mb |
| 20260508055703 | 58 | 253 | 1.7 | 2.6 | 0.00 | 0.96 | 0.01 | 83 | 1010.4 |
| 20260508053657 | 58 | 236 | 1.7 | 2.6 | 0.00 | 0.96 | 0.01 | 81 | 1009.9 |
| 20260508051844 | 58 | 236 | 1.7 | 2.6 | 0.00 | 0.96 | 0.01 | 81 | 1009.9 |
| 20260508045842 | 58 | 215 | 2.6 | 4.3 | 0.00 | 0.96 | 0.01 | 81 | 1009.8 |
| 20260508043839 | 58 | 243 | 1.7 | 2.6 | 0.00 | 0.96 | 0.01 | 80 | 1009.6 |
| 20260508041842 | 58 | 243 | 1.7 | 2.6 | 0.00 | 0.96 | 0.01 | 80 | 1009.6 |
| 20260508035816 | 58 | 207 | 1.7 | 2.6 | 0.00 | 0.96 | 0.01 | 81 | 1009.8 |
| 20260508033929 | 58 | 216 | 1.7 | 2.6 | 0.00 | 0.96 | 0.01 | 81 | 1009.8 |
| 20260508031751 | 58 | 236 | 0.9 | 2.6 | 0.00 | 0.96 | 0.01 | 82 | 1010.0 |
| 20260508025613 | 58 | 236 | 0.9 | 2.6 | 0.00 | 0.96 | 0.01 | 82 | 1010.0 |
| 20260508023648 | 58 | 217 | 1.7 | 4.3 | 0.01 | 0.96 | 0.01 | 82 | 1010.1 |
| 20260508021632 | 58 | 217 | 1.7 | 4.3 | 0.01 | 0.96 | 0.01 | 82 | 1010.1 |
| 20260508015554 | 58 | 217 | 1.7 | 4.3 | 0.01 | 0.96 | 0.01 | 82 | 1010.1 |
| 20260508013731 | 58 | 240 | 1.7 | 2.6 | 0.00 | 0.95 | 0.00 | 81 | 1010.7 |
| 20260508011809 | 57 | 253 | 1.7 | 2.6 | 0.00 | 0.95 | 0.00 | 86 | 1010.9 |
| 20260508005803 | 57 | 253 | 1.7 | 2.6 | 0.00 | 0.95 | 0.00 | 86 | 1010.9 |
| 20260508003729 | 57 | 253 | 1.7 | 2.6 | 0.00 | 0.95 | 0.00 | 86 | 1010.9 |
| 20260508001833 | 57 | 253 | 1.7 | 2.6 | 0.00 | 0.95 | 0.00 | 86 | 1010.9 |
| 20260508000003 | 57 | 253 | 1.7 | 2.6 | 0.00 | 0.95 | 0.00 | 86 | 1010.9 |
| 20260507233904 | 57 | 259 | 4.3 | 4.3 | 0.00 | 0.95 | 0.00 | 85 | 1010.9 |
| 20260507231853 | 57 | 256 | 2.6 | 4.3 | 0.00 | 0.95 | 0.00 | 86 | 1011.1 |
| 20260507225817 | 57 | 256 | 2.6 | 4.3 | 0.00 | 0.95 | 0.00 | 86 | 1011.1 |
| 20260507223753 | 57 | 224 | 1.7 | 5.2 | 0.00 | 0.95 | 0.95 | 88 | 1011.5 |
| 20260507221759 | 57 | 224 | 1.7 | 5.2 | 0.00 | 0.95 | 0.95 | 88 | 1011.5 |
| 20260507215744 | 57 | 224 | 1.7 | 5.2 | 0.00 | 0.95 | 0.95 | 88 | 1011.5 |
| 20260507213629 | 57 | 224 | 1.7 | 5.2 | 0.00 | 0.95 | 0.95 | 88 | 1011.5 |
| 20260507211608 | 57 | 207 | 2.6 | 6.1 | 0.01 | 0.95 | 0.95 | 89 | 1011.5 |
| 20260507205603 | 57 | 246 | 2.6 | 6.1 | 0.03 | 0.95 | 0.95 | 90 | 1011.2 |
| 20260507203630 | 59 | 155 | 0.0 | 0.9 | 0.15 | 0.92 | 0.92 | 85 | 1010.7 |
| 20260507201550 | 59 | 155 | 0.0 | 0.9 | 0.15 | 0.92 | 0.92 | 85 | 1010.7 |
| 20260507195724 | 59 | 155 | 0.0 | 0.9 | 0.15 | 0.92 | 0.92 | 85 | 1010.7 |
| 20260507193739 | 59 | 155 | 0.0 | 0.9 | 0.15 | 0.92 | 0.92 | 85 | 1010.7 |
| 20260507191804 | 57 | 148 | 8.7 | 12.2 | 0.56 | 0.74 | 0.74 | 85 | 1010.1 |
| 20260507185713 | 57 | 148 | 8.7 | 12.2 | 0.56 | 0.74 | 0.74 | 85 | 1010.1 |
| 20260507183724 | 57 | 148 | 8.7 | 12.2 | 0.56 | 0.74 | 0.74 | 85 | 1010.1 |
| 20260507181633 | 58 | 135 | 13.0 | 18.2 | 0.58 | 0.69 | 0.69 | 86 | 1009.8 |
| 20260507175733 | 64 | 17 | 5.2 | 8.7 | 0.09 | 0.10 | 0.10 | 85 | 1008.8 |
| 20260507173918 | 64 | 17 | 5.2 | 8.7 | 0.09 | 0.10 | 0.10 | 85 | 1008.8 |
| 20260507172034 | 64 | 17 | 5.2 | 8.7 | 0.09 | 0.10 | 0.10 | 85 | 1008.8 |
| 20260507165819 | 64 | 17 | 5.2 | 8.7 | 0.09 | 0.10 | 0.10 | 85 | 1008.8 |
| 20260507163903 | 66 | 21 | 7.8 | 11.3 | 0.00 | 0.01 | 0.01 | 76 | 1008.4 |
| 20260507161958 | 66 | 21 | 7.8 | 11.3 | 0.00 | 0.01 | 0.01 | 76 | 1008.4 |
| 20260507160008 | 66 | 8 | 4.3 | 7.8 | 0.00 | 0.01 | 0.01 | 76 | 1008.3 |
| 20260507154107 | 66 | 45 | 7.0 | 10.4 | 0.00 | 0.01 | 0.01 | 76 | 1008.2 |
| 20260507152048 | 66 | 32 | 4.3 | 8.7 | 0.00 | 0.01 | 0.01 | 76 | 1008.2 |
| 20260507145833 | 67 | 31 | 4.3 | 8.7 | 0.00 | 0.01 | 0.01 | 74 | 1008.4 |
| 20260507143833 | 67 | 16 | 5.2 | 10.4 | 0.00 | 0.01 | 0.01 | 73 | 1008.8 |
| 20260507141749 | 67 | 16 | 5.2 | 10.4 | 0.00 | 0.01 | 0.01 | 73 | 1008.8 |
| 20260507135754 | 67 | 16 | 5.2 | 10.4 | 0.00 | 0.01 | 0.01 | 73 | 1008.8 |
| 20260507133706 | 67 | 22 | 4.3 | 10.4 | 0.00 | 0.00 | 0.00 | 74 | 1009.9 |
| 20260507131842 | 67 | 22 | 4.3 | 10.4 | 0.00 | 0.00 | 0.00 | 74 | 1009.9 |
| 20260507125705 | 67 | 22 | 4.3 | 10.4 | 0.00 | 0.00 | 0.00 | 74 | 1009.9 |
| 20260507123619 | 67 | 22 | 4.3 | 10.4 | 0.00 | 0.00 | 0.00 | 74 | 1009.9 |
| 20260507121629 | 67 | 22 | 4.3 | 10.4 | 0.00 | 0.00 | 0.00 | 74 | 1009.9 |
| 20260507115803 | 67 | 22 | 4.3 | 10.4 | 0.00 | 0.00 | 0.00 | 74 | 1009.9 |
| 20260507113740 | 67 | 41 | 4.3 | 7.0 | 0.00 | 0.00 | 0.00 | 73 | 1010.2 |
| 20260507111735 | 67 | 52 | 3.5 | 7.0 | 0.00 | 0.00 | 0.00 | 74 | 1010.2 |
| 20260507105754 | 67 | 40 | 5.2 | 7.0 | 0.00 | 0.00 | 0.00 | 75 | 1010.3 |
| 20260507103913 | 67 | 40 | 5.2 | 7.0 | 0.00 | 0.00 | 0.00 | 75 | 1010.3 |
| 20260507101913 | 67 | 40 | 5.2 | 7.0 | 0.00 | 0.00 | 0.00 | 75 | 1010.3 |
| 20260507100037 | 67 | 33 | 3.5 | 7.8 | 0.00 | 0.00 | 0.00 | 73 | 1010.5 |
| 20260507093829 | 67 | 31 | 1.7 | 6.1 | 0.00 | 0.00 | 0.00 | 76 | 1010.6 |
| 20260507091627 | 66 | 11 | 4.3 | 6.1 | 0.00 | 0.00 | 0.00 | 76 | 1010.5 |
| 20260507085533 | 66 | 22 | 1.7 | 7.0 | 0.00 | 0.00 | 0.00 | 75 | 1010.6 |
| 20260507083543 | 65 | 334 | 3.5 | 7.0 | 0.00 | 0.00 | 0.00 | 75 | 1010.2 |
| 20260507081534 | 64 | 312 | 3.5 | 6.1 | 0.00 | 0.00 | 0.00 | 75 | 1010.2 |
| 20260507075609 | 64 | 312 | 3.5 | 6.1 | 0.00 | 0.00 | 0.00 | 75 | 1010.2 |
| 20260507073639 | 63 | 267 | 3.5 | 5.2 | 0.00 | 0.00 | 0.00 | 75 | 1010.1 |
| 20260507071527 | 63 | 267 | 3.5 | 5.2 | 0.00 | 0.00 | 0.00 | 75 | 1010.1 |
| 20260507065524 | 61 | 208 | 4.3 | 5.2 | 0.00 | 0.00 | 0.00 | 79 | 1010.2 |
| 20260507063533 | 61 | 208 | 4.3 | 5.2 | 0.00 | 0.00 | 0.00 | 79 | 1010.2 |
| 20260507061709 | 60 | 263 | 3.5 | 5.2 | 0.00 | 0.00 | 0.00 | 78 | 1010.0 |